Location: Kolin
(50.0330°N, 15.2000°E)
Time: 08:37:54
(UTC+02:00)

Gurwin Techsat 1B - Pass Details

Date: 15 August 2022
Orbit: 811 x 814 km, 98.8° (Epoch: 25 September)

Event Time Altitude Azimuth Distance (km) Brightness Sun altitude
Rises 05:05:16 0° 7° (N) 3,352 12.4 -7.0°
Reaches altitude 10° 05:07:56 10° 356° (N) 2,415 11.5 -6.6°
Maximum altitude 05:12:18 27° 301° (WNW) 1,541 9.8 -6.0°
Drops below altitude 10° 05:16:39 10° 246° (WSW) 2,402 10.4 -5.4°
Enters shadow 05:17:36 - 240° (WSW) 2,720 10.6 -5.3°
